Theta_e
297 297 297 297 297 297 297 297 298 299 299 299 300 300 300 300 300 298 297 300 296 290 292 296 296 290 288 289 285 288 288 286 283 279 281 280 279 283 281 284 283 281 280 280 281 279 276 291 291 285 286 292 294 294
296 296 296 296 297 297 297 297 297 298 299 299 299 300 300 299 299 300 294 300 301 293 292 297 299 298 295 294 289 290 288 288 288 283 283 283 281 283 282 279 290 282 286 281 283 281 289 292 291 295 296 293 293 292
295 295 295 296 296 297 296 297 297 297 298 298 299 300 299 299 299 299 297 298 297 292 290 289 290 298 300 299 297 288 289 292 290 292 287 287 284 287 278 282 285 290 294 287 287 289 291 293 296 297 298 296 296 293
294 295 295 295 296 296 297 297 297 297 297 298 299 299 298 298 298 300 296 300 296 292 284 286 296 293 298 297 297 295 294 295 294 292 286 287 285 290 284 287 285 289 291 287 287 290 292 294 295 296 297 297 293 293
295 295 295 295 296 296 296 297 297 298 298 299 299 298 297 298 299 300 299 299 300 291 280 284 290 293 295 294 294 294 293 290 288 285 286 284 286 285 285 286 283 290 287 281 280 290 290 292 294 297 294 295 293 292
294 295 296 296 296 296 297 297 297 297 298 298 298 297 297 299 300 297 289 298 300 299 284 276 287 290 293 294 292 292 291 288 287 286 285 285 289 285 281 279 287 291 292 292 288 294 295 296 297 297 296 295 293 292
295 295 296 296 296 297 297 297 297 297 298 298 298 297 297 299 298 288 289 294 300 299 283 279 280 287 294 292 290 291 292 289 287 285 282 285 287 287 285 280 288 291 291 292 294 294 292 294 293 296 296 296 295 293
295 295 296 296 296 297 297 297 297 297 298 298 298 298 299 300 299 294 297 300 297 291 288 278 278 283 290 285 288 291 290 291 291 289 289 286 287 287 281 286 289 291 292 294 295 298 296 293 293 293 293 292 290 288
295 295 296 296 296 296 297 297 297 297 298 297 299 300 298 295 291 294 300 299 296 288 280 279 275 275 288 288 289 289 291 284 290 286 286 287 285 282 285 287 289 291 291 290 292 293 292 291 291 291 290 288 287 286
294 294 295 295 296 296 296 296 296 297 300 300 296 290 285 293 301 298 292 289 288 288 287 282 283 277 288 287 285 285 286 284 281 284 289 284 283 287 290 292 290 290 290 291 289 288 290 289 289 289 289 289 288 287
295 298 297 295 295 297 299 300 299 300 299 291 287 286 295 299 292 287 282 282 284 282 285 285 282 283 289 283 284 286 284 285 280 282 283 282 282 286 290 290 291 290 290 290 291 290 290 290 290 290 290 290 289 288
300 300 300 300 300 300 299 299 299 294 291 290 292 294 293 289 284 280 279 281 281 278 281 282 283 283 288 290 284 285 282 284 280 286 283 279 282 286 287 288 289 288 289 288 288 287 286 287 288 289 289 288 287 285
299 299 300 299 299 300 299 298 298 298 295 290 286 285 282 282 276 275 274 279 278 280 282 286 284 286 288 289 285 284 282 280 286 282 279 280 283 285 285 287 287 285 285 285 284 283 283 282 283 283 283 282 282 279
299 299 299 299 298 299 299 299 299 295 288 281 278 277 276 274 276 276 277 277 281 286 287 288 285 285 286 284 284 278 280 284 274 270 276 280 282 283 284 287 286 284 283 284 283 282 280 280 281 281 280 277 282 281
298 298 298 298 298 298 298 298 298 291 284 280 279 269 273 276 281 284 284 279 285 287 287 285 285 286 283 282 282 281 279 275 276 275 279 281 282 283 283 284 284 283 283 283 282 281 279 277 280 280 279 278 279 277
297 297 296 298 298 298 298 296 293 290 284 281 281 275 278 273 271 282 282 279 288 285 285 285 284 281 280 281 280 277 277 274 277 279 281 282 282 282 283 283 283 283 283 283 282 282 282 279 278 280 278 277 276 276
295 292 297 297 297 297 297 290 289 286 282 281 275 276 277 281 283 285 284 285 289 285 283 284 281 279 283 280 280 279 272 278 280 280 281 282 282 282 283 283 282 283 283 283 282 282 280 278 277 279 279 278 278 276
288 291 297 297 296 294 291 289 286 282 280 277 275 278 283 283 283 285 285 285 284 285 285 284 285 282 278 279 276 278 280 281 282 281 281 282 283 281 283 280 281 283 282 282 278 281 282 281 281 279 279 278 277 277
291 292 297 297 295 290 287 286 288 280 278 279 277 279 284 284 285 285 285 285 286 286 285 284 280 278 277 280 280 279 280 281 280 281 281 282 281 282 283 282 280 280 280 280 282 281 281 281 281 281 281 281 281 279
294 294 294 295 294 286 284 282 288 282 279 280 280 282 282 280 283 285 285 285 285 283 280 278 277 277 278 280 280 281 282 284 282 280 281 282 284 281 282 282 283 283 282 281 282 283 281 280 281 281 280 280 279 278
291 291 292 290 287 286 283 281 281 281 281 279 282 282 279 284 284 283 282 285 281 280 277 278 277 278 280 281 282 282 282 283 281 281 281 281 282 282 282 282 282 282 281 280 280 279 280 280 281 281 280 279 279 279
287 293 287 289 284 284 281 283 282 283 281 281 280 281 278 274 280 281 282 277 277 276 278 275 277 279 279 279 280 280 281 282 282 281 281 281 279 279 279 279 280 280 280 279 280 279 279 280 280 280 279 279 279 278
290 289 284 284 277 274 275 283 281 281 277 278 281 279 277 275 279 281 273 277 273 278 278 279 279 280 278 278 280 280 280 279 278 280 280 280 280 280 278 278 277 276 276 276 278 278 276 276 276 274 274 275 278 276
289 281 275 275 277 270 277 273 281 280 277 278 277 274 277 276 280 276 275 274 275 278 278 278 279 278 279 279 276 276 277 278 276 277 279 279 278 277 275 274 274 274 276 276 275 272 272 266 268 269 268 274 272 269
274 272 274 267 273 273 268 268 271 275 268 272 274 271 272 277 270 270 271 271 275 275 275 278 279 279 276 273 274 275 278 279 276 274 275 277 276 275 273 273 272 273 274 268 267 264 263 265 267 267 269 265 268 267
267 269 275 271 270 273 275 268 268 268 270 268 268 276 274 268 265 267 271 272 274 273 271 272 275 275 276 276 273 272 272 276 276 273 272 274 275 272 270 266 263 266 271 265 263 262 264 263 261 264 263 267 264 265
265 266 278 279 278 277 270 274 278 272 268 266 269 268 268 264 262 268 271 273 272 273 274 274 277 275 273 273 274 273 272 274 274 273 274 274 273 273 270 265 263 268 271 266 263 262 264 259 258 260 264 263 264 262
271 274 264 267 268 274 265 264 265 265 271 277 276 271 264 264 265 267 269 273 272 274 274 275 275 275 273 272 272 270 270 272 274 274 273 272 271 269 268 267 267 269 264 261 261 260 263 259 259 261 261 258 256 260
267 272 270 261 260 266 267 270 271 273 276 274 267 267 267 268 268 268 268 268 271 270 266 267 267 270 270 269 269 269 268 269 270 267 264 261 261 265 263 261 261 261 259 261 264 269 268 264 265 263 258 258 254 257
264 274 265 259 259 262 270 273 269 272 273 271 271 269 267 265 266 267 269 269 269 267 267 266 267 269 265 265 265 265 267 267 267 267 265 262 262 262 258 258 258 257 256 257 258 263 264 261 263 263 262 261 260 260
271 267 265 269 264 269 270 269 267 271 275 272 264 264 261 263 264 267 267 268 269 270 269 268 268 269 268 266 266 265 264 263 262 263 264 262 261 257 258 256 257 255 257 258 258 256 257 257 257 256 256 256 256 256
261 263 260 259 261 264 265 262 263 266 265 261 258 256 261 260 258 262 266 268 268 268 268 268 268 266 267 266 265 264 263 261 260 259 258 257 257 256 259 259 261 259 258 257 257 257 258 257 256 255 254 252 251 251
259 258 258 257 259 260 259 260 260 266 268 263 260 260 258 258 256 260 264 267 267 267 267 267 268 268 267 266 264 263 262 261 262 264 262 261 260 260 260 261 263 262 260 259 258 257 256 254 252 250 249 248 247 246
Wind_Speed
18 17 15 15 14 15 18 18 17 18 18 18 18 18 15 14 12 8 2 9 6 4 4 4 4 4 2 3 3 4 4 2 1 3 4 4 4 4 4 9 4 7 6 5 6 7 9 4 1 6 6 4 7 4
17 16 15 15 16 17 18 18 17 18 18 18 18 18 15 14 13 13 6 7 7 4 3 5 5 4 2 3 5 1 5 4 5 4 3 2 3 3 5 4 2 3 6 5 8 7 4 1 4 4 4 5 7 3
17 15 16 16 18 19 18 17 17 17 18 18 18 19 17 15 15 14 5 6 5 2 3 4 6 7 4 3 3 4 2 5 4 4 4 2 5 1 3 2 4 5 3 1 2 3 4 8 9 8 6 11 13 5
18 17 18 19 19 17 18 17 17 17 17 18 19 19 16 16 19 17 5 4 5 2 1 6 1 3 5 4 4 4 3 3 5 2 3 2 3 3 3 2 3 5 4 6 5 10 8 9 7 7 8 7 8 6
18 18 18 18 17 17 17 17 17 18 18 19 20 19 17 17 20 11 6 2 4 3 4 4 5 5 5 6 6 5 4 3 2 2 2 4 2 0 2 2 4 4 6 4 6 7 4 7 6 5 8 10 8 9
19 18 19 18 18 18 18 18 18 17 18 21 23 19 17 17 18 4 3 5 6 5 3 2 4 3 2 6 6 5 4 3 3 4 3 3 3 3 2 4 6 5 3 5 4 4 7 9 7 5 5 6 7 10
18 18 19 20 20 19 18 20 19 18 19 21 22 20 19 18 9 3 3 4 12 2 3 3 4 4 3 3 2 2 3 3 4 3 3 3 3 5 3 8 3 6 9 11 14 6 5 5 5 5 7 9 8 7
20 20 19 20 18 19 19 20 18 18 17 21 20 22 19 15 14 3 3 9 7 4 2 2 4 3 3 1 2 2 2 1 1 3 2 3 2 3 6 12 10 10 9 11 4 6 5 4 5 5 3 3 6 7
20 19 18 18 17 18 19 17 18 16 13 26 28 23 12 2 3 3 13 12 3 5 4 3 3 4 2 2 1 1 1 1 1 4 4 5 4 7 10 8 6 10 3 2 4 2 1 3 4 5 3 4 6 7
23 23 21 21 21 23 20 17 17 16 35 37 15 3 3 2 15 6 7 3 3 2 2 2 2 2 2 3 3 3 2 3 4 6 4 5 7 4 7 6 2 0 3 4 4 5 5 4 4 2 1 2 6 7
18 9 17 25 26 21 18 25 36 27 16 4 3 3 7 9 4 3 3 2 2 1 3 4 7 5 3 4 3 3 2 3 4 5 6 4 4 2 5 5 4 4 6 7 5 5 5 3 5 4 4 5 6 8
27 29 35 34 35 35 33 26 14 6 2 7 8 6 3 3 3 4 4 4 4 6 4 5 6 4 3 2 3 3 4 4 6 6 5 3 3 3 5 6 6 7 6 6 6 6 7 7 6 3 4 5 6 6
30 30 30 29 25 18 18 21 24 21 6 5 6 5 3 1 3 7 7 4 4 4 5 4 3 4 3 3 3 3 4 4 2 2 2 2 3 4 5 4 4 6 7 6 6 6 6 5 7 5 1 2 5 6
25 25 25 25 24 21 19 14 5 4 5 5 4 5 4 4 4 5 4 4 3 1 5 4 3 4 3 5 3 4 5 1 3 1 2 2 2 4 4 5 5 5 6 7 6 5 5 5 5 6 6 3 5 6
21 19 18 16 15 13 12 11 8 3 4 4 4 3 4 3 2 1 1 2 2 2 3 2 2 2 2 3 3 3 2 4 4 2 2 3 4 4 3 3 4 4 4 5 4 4 5 4 4 5 6 4 5 5
12 11 6 11 12 12 12 8 6 3 4 3 3 3 1 4 4 1 2 3 2 2 1 2 3 3 3 3 5 5 4 4 2 2 3 3 5 3 3 3 3 3 3 4 4 4 4 4 4 3 3 5 4 4
9 2 4 7 7 8 9 4 3 3 3 2 2 1 3 2 2 1 2 2 1 3 3 2 4 4 3 3 5 1 2 1 4 4 2 4 3 2 2 3 3 4 4 4 4 5 3 3 2 2 5 4 3 3
4 1 1 3 5 4 3 2 2 2 1 1 2 2 1 1 2 2 2 2 2 3 2 2 2 2 2 2 3 3 3 3 3 3 3 3 3 2 2 3 3 3 2 2 2 2 4 4 4 3 3 2 3 3
2 2 3 3 2 3 2 2 3 1 4 2 0 1 1 1 2 3 2 3 3 3 0 2 3 2 2 1 4 5 4 2 4 2 2 3 3 3 3 2 3 4 4 3 4 3 4 6 5 4 3 3 2 1
3 1 4 5 4 0 2 3 2 2 1 3 2 2 2 2 1 1 2 2 2 2 3 3 1 1 2 1 2 4 3 5 6 5 3 3 3 4 5 4 4 4 4 4 5 5 3 4 4 4 4 5 4 4
3 2 1 3 1 2 1 1 2 3 2 2 2 3 2 0 1 1 2 2 3 2 2 2 2 3 5 4 4 4 5 5 2 2 3 4 3 4 4 3 4 4 4 3 4 4 5 4 3 3 3 3 3 1
2 2 1 0 2 4 1 2 2 2 2 1 0 2 1 0 2 0 2 4 2 1 1 2 2 4 4 4 3 4 4 8 6 5 5 4 3 4 4 4 4 4 5 5 2 3 3 2 2 2 3 2 3 2
5 4 4 4 4 4 6 3 1 1 1 2 1 1 1 0 1 2 3 2 1 2 2 3 4 5 6 3 6 6 4 6 4 5 4 4 5 4 4 5 5 5 5 6 6 5 5 5 5 4 3 2 2 2
6 4 3 1 2 3 3 4 2 2 3 1 1 1 1 2 0 2 3 2 0 2 2 3 5 5 4 6 4 3 3 3 4 4 3 3 4 5 5 4 4 4 3 2 3 3 4 3 4 4 3 4 4 1
6 6 5 5 4 4 4 5 4 3 1 2 2 3 2 2 2 2 2 1 1 1 1 2 1 1 4 3 2 5 7 3 4 5 3 3 3 6 5 5 5 4 3 4 4 4 3 4 4 5 5 4 5 5
5 5 4 1 4 2 2 2 2 3 1 2 2 2 2 3 4 1 2 5 2 3 2 2 2 5 5 4 3 2 2 2 4 4 2 3 3 5 5 3 2 3 4 2 3 3 4 3 4 6 5 5 5 4
4 4 2 3 2 2 4 3 2 2 1 2 3 1 3 2 1 1 1 4 2 2 3 3 3 4 6 5 3 2 2 3 4 5 4 6 6 5 4 4 2 2 2 3 3 2 1 1 2 3 3 4 5 4
2 4 2 5 3 1 2 3 1 1 2 4 2 2 3 3 2 1 1 3 2 2 4 5 5 5 5 4 3 3 4 3 7 8 7 7 6 4 4 3 3 5 3 3 2 2 0 1 0 3 5 4 3 5
3 3 4 5 4 3 1 1 1 1 3 2 2 2 2 3 2 3 3 2 3 2 3 3 2 4 5 5 6 5 4 4 4 6 5 2 2 3 3 3 3 3 3 3 6 5 7 4 7 6 5 5 2 4
5 1 3 3 2 3 2 1 1 2 2 2 3 3 3 2 2 3 5 5 4 3 1 3 1 3 3 4 4 6 6 6 5 3 5 4 3 1 2 3 3 3 3 4 4 5 8 7 6 5 6 6 6 6
2 4 4 2 3 3 4 2 2 2 2 2 3 4 3 2 2 3 5 5 4 3 4 4 5 4 5 5 4 4 3 4 6 7 6 4 3 2 2 2 1 2 3 5 5 4 5 5 5 6 7 8 8 7
3 2 3 2 5 6 4 3 3 3 1 3 2 3 2 3 3 3 5 5 3 4 5 4 5 4 5 5 6 6 8 3 3 3 5 3 2 2 3 2 3 4 5 5 5 4 7 7 6 6 7 8 8 7
4 4 3 3 6 8 5 5 5 4 3 3 3 2 2 3 2 3 3 3 3 4 3 3 5 5 6 7 7 6 6 4 6 7 7 6 5 4 3 3 4 5 7 6 6 6 8 10 8 8 8 8 7 7
Wind_Direction
219 223 229 234 240 245 247 246 241 234 227 219 214 214 222 225 240 209 215 194 176 223 266 225 278 255 120 174 186 247 71 358 84 104 142 216 211 230 231 241 226 173 171 196 201 218 258 231 291 179 226 246 239 236
223 225 230 235 241 243 242 243 238 229 223 219 216 214 220 227 237 222 221 188 189 251 243 289 221 252 194 181 174 280 168 160 166 124 190 175 228 256 210 260 251 194 197 180 190 203 251 354 190 253 221 280 284 230
228 231 237 241 246 242 241 239 232 225 219 217 215 216 224 231 238 231 216 172 176 262 349 273 222 204 273 241 144 119 300 152 164 175 166 189 240 205 243 254 326 15 31 223 320 256 261 252 252 241 212 238 257 225
233 236 238 242 242 236 233 233 225 217 218 218 216 210 226 240 241 230 224 154 166 165 155 264 283 175 205 181 167 164 145 81 111 109 125 165 241 200 256 273 224 197 249 202 213 257 281 280 259 259 247 228 245 175
233 236 238 238 235 231 230 229 221 215 224 218 206 213 236 246 229 221 209 162 170 136 203 252 285 224 192 191 198 160 150 115 97 85 109 210 220 285 281 279 237 206 210 176 234 243 232 257 251 249 237 225 206 163
236 235 231 231 229 227 225 222 218 222 221 216 209 227 233 243 209 163 173 199 192 216 116 26 283 285 190 159 173 164 161 126 128 142 195 227 254 127 249 249 235 254 226 196 245 246 236 254 263 248 252 208 196 184
235 233 234 228 227 224 224 220 218 223 224 217 211 221 227 222 193 179 203 167 164 102 76 358 338 300 341 147 126 134 153 174 134 189 208 176 205 182 231 252 194 262 288 298 289 254 262 241 245 267 251 271 186 168
236 232 229 225 228 228 222 218 230 224 217 231 211 204 211 185 127 178 273 150 112 96 80 90 272 344 7 85 120 331 107 156 176 204 186 185 182 183 236 249 254 262 278 275 297 229 225 240 272 287 291 147 158 157
237 231 229 226 223 221 228 222 227 220 230 251 232 182 150 142 152 135 102 86 80 109 132 125 171 240 32 76 93 117 176 223 144 210 196 180 174 221 223 247 259 253 226 277 336 286 245 257 256 289 261 154 153 158
267 255 230 227 229 227 232 219 229 230 125 115 111 99 101 105 118 48 21 51 34 36 39 216 157 246 144 168 193 140 199 209 217 221 157 217 239 241 208 222 185 92 16 15 3 312 265 251 234 237 231 206 171 163
245 192 194 202 211 219 178 146 141 133 111 78 81 77 108 83 58 50 88 87 131 213 197 215 194 176 192 174 189 201 209 217 235 188 197 204 230 97 80 82 29 38 61 46 47 40 16 8 264 196 190 173 164 156
93 87 97 101 106 108 112 112 98 64 55 122 103 86 79 72 76 117 165 162 202 223 197 191 206 187 154 160 148 194 235 210 250 144 191 211 99 48 43 31 36 31 39 47 28 17 2 0 341 319 218 168 166 168
78 87 92 92 91 86 88 97 108 113 66 50 62 75 86 52 139 172 179 195 194 211 185 174 159 148 147 181 201 206 253 236 288 219 176 86 100 58 31 8 55 38 29 28 14 13 5 356 1 3 32 1 124 121
75 79 82 81 78 85 97 107 124 26 72 64 93 121 167 182 220 196 191 188 218 225 168 171 149 183 171 171 189 207 235 305 336 339 184 121 91 53 28 14 39 20 18 12 9 3 0 14 17 13 15 15 128 139
64 63 63 61 66 59 45 39 45 80 85 90 82 145 196 228 244 304 38 96 223 266 130 136 192 182 148 178 188 198 217 233 211 181 102 103 81 54 22 23 35 23 13 14 9 19 2 20 47 35 16 42 66 86
47 53 43 62 56 41 25 18 27 54 48 62 93 54 298 65 301 249 250 246 191 171 108 187 193 167 178 193 203 192 198 220 132 82 88 91 75 41 16 55 29 18 36 33 37 40 28 26 43 52 29 50 62 97
65 60 98 55 34 22 18 60 34 50 116 118 309 177 160 188 244 262 201 242 328 162 221 193 192 189 134 197 179 47 166 85 107 97 83 72 69 25 34 68 58 45 38 37 41 36 20 10 34 40 56 13 42 69
65 250 245 349 10 4 16 58 75 97 179 260 100 241 162 182 255 250 234 227 213 220 185 191 169 187 149 179 136 125 102 93 90 93 85 78 70 51 53 71 48 79 73 60 76 24 24 30 53 33 53 49 66 50
181 183 248 293 32 49 6 349 93 194 225 201 197 158 163 229 242 273 263 255 221 223 8 69 63 97 139 68 115 120 139 129 119 106 90 69 60 89 93 84 77 66 56 37 59 67 57 53 49 42 23 19 16 42
356 333 238 223 153 349 276 302 116 154 211 230 83 181 194 202 230 289 321 341 32 40 47 52 76 32 102 49 73 96 97 119 126 122 101 98 63 57 51 57 67 68 72 38 53 78 56 57 41 48 38 38 47 43
38 288 175 122 220 205 222 298 326 198 173 163 191 152 254 204 232 172 353 346 54 28 87 59 82 76 71 69 64 78 74 92 101 115 119 113 73 68 58 49 61 57 59 49 66 63 60 62 44 44 44 29 13 18
265 3 90 217 29 351 31 297 188 266 111 205 84 159 149 231 243 136 144 55 40 332 97 115 117 106 95 77 70 57 76 100 94 86 69 78 88 70 52 32 49 57 46 25 31 76 61 24 40 45 39 6 0 333
3 25 30 30 39 34 261 0 17 240 117 261 61 145 294 332 219 78 66 71 240 322 40 94 94 103 113 90 68 60 85 98 91 85 89 90 91 90 90 69 49 51 50 28 31 49 40 28 32 20 349 1 27 4
26 56 55 18 81 264 352 338 313 339 17 336 193 305 116 207 92 58 93 61 302 352 69 87 120 113 91 80 66 54 53 88 80 59 35 112 112 84 76 73 59 51 41 33 36 41 27 0 355 6 0 355 338 330
67 319 67 337 321 23 11 340 333 24 313 276 58 328 286 59 70 57 95 317 90 76 46 67 118 159 112 98 72 66 38 74 104 91 14 52 108 109 89 69 55 32 15 46 19 25 346 357 14 11 4 348 32 10
68 296 44 323 301 23 287 356 295 253 195 340 254 290 37 77 65 40 43 343 35 32 24 32 90 85 87 93 102 59 3 358 106 90 23 30 61 129 130 121 65 345 357 68 74 26 7 6 11 1 350 20 16 29
48 308 336 354 303 323 339 323 315 89 235 226 271 16 74 71 222 250 38 2 45 358 14 20 76 104 118 107 84 49 19 41 97 106 94 69 58 61 103 128 143 251 354 40 41 36 58 351 343 354 48 18 22 34
222 52 354 286 340 319 201 317 312 308 327 335 349 36 138 162 185 309 13 341 3 61 68 50 55 76 87 83 67 62 36 33 97 97 85 63 48 46 51 56 45 40 27 25 22 10 322 193 326 71 84 75 24 24
38 310 44 336 330 335 293 268 293 21 338 20 70 52 84 58 11 360 322 320 324 78 80 96 24 78 79 66 54 43 33 27 157 150 115 122 50 355 358 32 22 14 17 15 352 19 60 76 96 96 98 87 71 47
294 353 33 351 106 266 279 347 333 335 3 90 98 93 68 47 10 340 17 12 18 9 120 133 151 142 119 102 86 59 33 27 25 72 127 139 172 239 24 35 21 3 14 52 56 43 43 47 53 57 63 60 60 63
312 36 17 319 254 238 228 235 292 139 115 80 24 94 134 149 23 23 12 346 346 18 69 63 55 42 111 121 120 112 86 22 33 43 56 72 62 32 4 354 59 70 56 61 65 60 70 60 59 66 66 65 58 64
351 148 124 304 292 296 359 31 251 184 97 79 346 47 48 68 51 348 339 346 37 47 62 79 94 97 86 85 75 72 84 90 58 51 59 65 48 356 359 38 79 73 69 60 59 66 77 80 78 76 76 70 65 62
354 20 22 17 347 351 311 32 339 2 50 58 15 98 81 106 138 254 299 357 15 14 59 67 72 94 94 97 103 96 85 84 81 78 72 65 56 45 43 54 71 76 81 79 72 81 83 86 82 82 80 80 76 73